| time (UTC) | temp C | wind direction | speed KPH | gust KPH | rain 1hr cm | rain 24hr cm | rain mn cm | humidity % | barometer mb |
| 20260510000032 | 30 | 94 | 3.2 | 12.9 | 0.00 | 0.00 | 0.00 | 43 | 1007.2 |
| 20260509235520 | 31 | 102 | 1.6 | 12.9 | 0.00 | 0.00 | 0.00 | 42 | 1007.2 |
| 20260509235055 | 31 | 122 | 4.8 | 11.3 | 0.00 | 0.00 | 0.00 | 44 | 1007.4 |
| 20260509234520 | 31 | 108 | 4.8 | 9.7 | 0.00 | 0.00 | 0.00 | 43 | 1007.3 |
| 20260509234031 | 31 | 108 | 0.0 | 9.7 | 0.00 | 0.00 | 0.00 | 43 | 1007.4 |
| 20260509233521 | 31 | 104 | 4.8 | 9.7 | 0.00 | 0.00 | 0.00 | 43 | 1007.4 |
| 20260509233032 | 31 | 99 | 6.4 | 9.7 | 0.00 | 0.00 | 0.00 | 43 | 1007.5 |
| 20260509232540 | 31 | 74 | 0.0 | 9.7 | 0.00 | 0.00 | 0.00 | 42 | 1007.5 |
| 20260509232023 | 31 | 53 | 4.8 | 12.9 | 0.00 | 0.00 | 0.00 | 43 | 1007.5 |
| 20260509231531 | 31 | 47 | 1.6 | 12.9 | 0.00 | 0.00 | 0.00 | 42 | 1007.6 |
| 20260509231042 | 31 | 81 | 4.8 | 17.7 | 0.00 | 0.00 | 0.00 | 43 | 1007.5 |
| 20260509230549 | 31 | 67 | 8.0 | 17.7 | 0.00 | 0.00 | 0.00 | 43 | 1007.6 |
| 20260509230037 | 31 | 111 | 4.8 | 12.9 | 0.00 | 0.00 | 0.00 | 44 | 1007.6 |
| 20260509225537 | 31 | 70 | 6.4 | 16.1 | 0.00 | 0.00 | 0.00 | 44 | 1007.6 |
| 20260509225023 | 31 | 93 | 4.8 | 11.3 | 0.00 | 0.00 | 0.00 | 45 | 1007.5 |
| 20260509224552 | 31 | 89 | 8.0 | 14.5 | 0.00 | 0.00 | 0.00 | 46 | 1007.5 |
| 20260509224034 | 31 | 97 | 3.2 | 14.5 | 0.00 | 0.00 | 0.00 | 45 | 1007.5 |
| 20260509223540 | 31 | 63 | 4.8 | 14.5 | 0.00 | 0.00 | 0.00 | 46 | 1007.5 |
| 20260509223027 | 31 | 56 | 6.4 | 16.1 | 0.00 | 0.00 | 0.00 | 46 | 1007.5 |
| 20260509222536 | 31 | 96 | 8.0 | 16.1 | 0.00 | 0.00 | 0.00 | 47 | 1007.6 |
| 20260509222027 | 31 | 110 | 8.0 | 16.1 | 0.00 | 0.00 | 0.00 | 47 | 1007.6 |
| 20260509221537 | 31 | 105 | 0.0 | 9.7 | 0.00 | 0.00 | 0.00 | 47 | 1007.5 |
| 20260509221025 | 31 | 108 | 0.0 | 9.7 | 0.00 | 0.00 | 0.00 | 47 | 1007.6 |
| 20260509220533 | 31 | 77 | 1.6 | 11.3 | 0.00 | 0.00 | 0.00 | 47 | 1007.6 |
| 20260509220024 | 31 | 96 | 1.6 | 11.3 | 0.00 | 0.00 | 0.00 | 47 | 1007.6 |
| 20260509215531 | 31 | 84 | 0.0 | 11.3 | 0.00 | 0.00 | 0.00 | 48 | 1007.7 |
| 20260509215022 | 31 | 87 | 1.6 | 11.3 | 0.00 | 0.00 | 0.00 | 48 | 1007.7 |
| 20260509214550 | 31 | 111 | 1.6 | 12.9 | 0.00 | 0.00 | 0.00 | 48 | 1007.7 |
| 20260509214103 | 31 | 73 | 6.4 | 16.1 | 0.00 | 0.00 | 0.00 | 47 | 1007.7 |
| 20260509213526 | 31 | 94 | 8.0 | 16.1 | 0.00 | 0.00 | 0.00 | 48 | 1007.7 |
| 20260509213038 | 31 | 95 | 0.0 | 17.7 | 0.00 | 0.00 | 0.00 | 48 | 1007.8 |
| 20260509212543 | 31 | 109 | 11.3 | 17.7 | 0.00 | 0.00 | 0.00 | 48 | 1007.7 |
| 20260509212029 | 31 | 97 | 9.7 | 14.5 | 0.00 | 0.00 | 0.00 | 47 | 1007.8 |
| 20260509211520 | 31 | 19 | 3.2 | 16.1 | 0.00 | 0.00 | 0.00 | 47 | 1007.9 |
| 20260509211051 | 31 | 99 | 1.6 | 16.1 | 0.00 | 0.00 | 0.00 | 48 | 1008.0 |
| 20260509210536 | 31 | 97 | 0.0 | 3.2 | 0.00 | 0.00 | 0.00 | 50 | 1008.2 |
| 20260509210023 | 31 | 67 | 0.0 | 4.8 | 0.00 | 0.00 | 0.00 | 51 | 1008.3 |
| 20260509205527 | 31 | 91 | 0.0 | 20.9 | 0.00 | 0.00 | 0.00 | 51 | 1008.2 |
| 20260509205031 | 31 | 92 | 0.0 | 20.9 | 0.00 | 0.00 | 0.00 | 51 | 1008.3 |
| 20260509204522 | 31 | 77 | 4.8 | 11.3 | 0.00 | 0.00 | 0.00 | 51 | 1008.3 |
| 20260509204031 | 31 | 100 | 1.6 | 19.3 | 0.00 | 0.00 | 0.00 | 52 | 1008.4 |
| 20260509203540 | 31 | 121 | 0.0 | 19.3 | 0.00 | 0.00 | 0.00 | 52 | 1008.4 |
| 20260509203025 | 31 | 45 | 8.0 | 11.3 | 0.00 | 0.00 | 0.00 | 53 | 1008.5 |
| 20260509202553 | 31 | 114 | 0.0 | 14.5 | 0.00 | 0.00 | 0.00 | 52 | 1008.6 |
| 20260509202104 | 31 | 126 | 1.6 | 14.5 | 0.00 | 0.00 | 0.00 | 52 | 1008.6 |
| 20260509201544 | 31 | 55 | 0.0 | 3.2 | 0.00 | 0.00 | 0.00 | 51 | 1008.7 |
| 20260509201027 | 31 | 99 | 0.0 | 0.0 | 0.00 | 0.00 | 0.00 | 46 | 1008.7 |
| 20260509200536 | 31 | 74 | 0.0 | 0.0 | 0.00 | 0.00 | 0.00 | 49 | 1008.7 |
| 20260509200044 | 31 | 64 | 0.0 | 0.0 | 0.00 | 0.00 | 0.00 | 51 | 1008.9 |
| 20260509195531 | 31 | 51 | 0.0 | 0.0 | 0.00 | 0.00 | 0.00 | 48 | 1008.9 |
| 20260509195043 | 31 | 60 | 0.0 | 8.0 | 0.00 | 0.00 | 0.00 | 49 | 1009.0 |
| 20260509194525 | 31 | 303 | 1.6 | 8.0 | 0.00 | 0.00 | 0.00 | 49 | 1009.0 |
| 20260509194033 | 31 | 349 | 0.0 | 9.7 | 0.00 | 0.00 | 0.00 | 48 | 1009.1 |
| 20260509193535 | 31 | 353 | 1.6 | 16.1 | 0.00 | 0.00 | 0.00 | 46 | 1009.1 |
| 20260509193040 | 31 | 41 | 1.6 | 16.1 | 0.00 | 0.00 | 0.00 | 49 | 1009.2 |
| 20260509192528 | 30 | 299 | 0.0 | 8.0 | 0.00 | 0.00 | 0.00 | 49 | 1009.2 |
| 20260509192031 | 30 | 92 | 1.6 | 8.0 | 0.00 | 0.00 | 0.00 | 49 | 1009.2 |
| 20260509191602 | 30 | 47 | 1.6 | 16.1 | 0.00 | 0.00 | 0.00 | 48 | 1009.2 |
| 20260509191041 | 30 | 56 | 4.8 | 16.1 | 0.00 | 0.00 | 0.00 | 49 | 1009.3 |
| 20260509190523 | 30 | 50 | 3.2 | 14.5 | 0.00 | 0.00 | 0.00 | 51 | 1009.4 |
| 20260509190035 | 30 | 72 | 3.2 | 6.4 | 0.00 | 0.00 | 0.00 | 51 | 1009.4 |
| 20260509185526 | 30 | 335 | 1.6 | 8.0 | 0.00 | 0.00 | 0.00 | 51 | 1009.4 |
| 20260509185034 | 30 | 345 | 0.0 | 9.7 | 0.00 | 0.00 | 0.00 | 50 | 1009.5 |
| 20260509184525 | 30 | 16 | 1.6 | 6.4 | 0.00 | 0.00 | 0.00 | 52 | 1009.6 |
| 20260509184031 | 29 | 353 | 0.0 | 4.8 | 0.00 | 0.00 | 0.00 | 50 | 1009.6 |
| 20260509183538 | 29 | 353 | 0.0 | 9.7 | 0.00 | 0.00 | 0.00 | 51 | 1009.7 |
| 20260509183024 | 30 | 9 | 1.6 | 9.7 | 0.00 | 0.00 | 0.00 | 50 | 1009.7 |
| 20260509182533 | 30 | 312 | 1.6 | 8.0 | 0.00 | 0.00 | 0.00 | 53 | 1009.7 |
| 20260509182020 | 29 | 328 | 0.0 | 6.4 | 0.00 | 0.00 | 0.00 | 51 | 1009.7 |
| 20260509181528 | 30 | 355 | 0.0 | 11.3 | 0.00 | 0.00 | 0.00 | 49 | 1009.8 |
| 20260509181031 | 29 | 53 | 6.4 | 11.3 | 0.00 | 0.00 | 0.00 | 51 | 1009.9 |
| 20260509180520 | 29 | 7 | 0.0 | 11.3 | 0.00 | 0.00 | 0.00 | 50 | 1009.8 |
| 20260509180026 | 29 | 59 | 3.2 | 11.3 | 0.00 | 0.00 | 0.00 | 51 | 1010.0 |
| 20260509175600 | 29 | 301 | 0.0 | 9.7 | 0.00 | 0.00 | 0.00 | 50 | 1009.9 |
| 20260509175045 | 29 | 345 | 1.6 | 8.0 | 0.00 | 0.00 | 0.00 | 50 | 1010.0 |
| 20260509174548 | 29 | 334 | 0.0 | 14.5 | 0.00 | 0.00 | 0.00 | 50 | 1010.0 |
| 20260509174035 | 29 | 35 | 0.0 | 14.5 | 0.00 | 0.00 | 0.00 | 50 | 1010.0 |
| 20260509173526 | 29 | 35 | 1.6 | 16.1 | 0.00 | 0.00 | 0.00 | 50 | 1010.1 |
| 20260509173031 | 29 | 340 | 3.2 | 16.1 | 0.00 | 0.00 | 0.00 | 50 | 1010.1 |
| 20260509172539 | 29 | 346 | 0.0 | 14.5 | 0.00 | 0.00 | 0.00 | 51 | 1010.1 |
| 20260509172029 | 29 | 20 | 1.6 | 17.7 | 0.00 | 0.00 | 0.00 | 50 | 1010.2 |
| 20260509171601 | 29 | 29 | 4.8 | 17.7 | 0.00 | 0.00 | 0.00 | 51 | 1010.2 |
| 20260509171025 | 29 | 28 | 1.6 | 14.5 | 0.00 | 0.00 | 0.00 | 51 | 1010.3 |
| 20260509170532 | 28 | 6 | 3.2 | 9.7 | 0.00 | 0.00 | 0.00 | 51 | 1010.3 |
| 20260509170119 | 28 | 301 | 4.8 | 14.5 | 0.00 | 0.00 | 0.00 | 53 | 1010.4 |
| 20260509165532 | 28 | 302 | 0.0 | 14.5 | 0.00 | 0.00 | 0.00 | 53 | 1010.3 |
| 20260509165039 | 28 | 347 | 3.2 | 11.3 | 0.00 | 0.00 | 0.00 | 52 | 1010.5 |
| 20260509164526 | 28 | 327 | 3.2 | 16.1 | 0.00 | 0.00 | 0.00 | 51 | 1010.4 |
| 20260509164032 | 28 | 320 | 3.2 | 16.1 | 0.00 | 0.00 | 0.00 | 53 | 1010.5 |
| 20260509163535 | 28 | 322 | 1.6 | 9.7 | 0.00 | 0.00 | 0.00 | 55 | 1010.5 |
| 20260509163023 | 28 | 318 | 1.6 | 14.5 | 0.00 | 0.00 | 0.00 | 52 | 1010.6 |
| 20260509162529 | 28 | 340 | 4.8 | 14.5 | 0.00 | 0.00 | 0.00 | 52 | 1010.6 |
| 20260509162048 | 28 | 11 | 1.6 | 14.5 | 0.00 | 0.00 | 0.00 | 54 | 1010.6 |
| 20260509161605 | 28 | 306 | 1.6 | 11.3 | 0.00 | 0.00 | 0.00 | 56 | 1010.5 |
| 20260509161044 | 27 | 358 | 8.0 | 11.3 | 0.00 | 0.00 | 0.00 | 54 | 1010.5 |
| 20260509160527 | 27 | 318 | 3.2 | 11.3 | 0.00 | 0.00 | 0.00 | 56 | 1010.5 |
| 20260509160034 | 27 | 323 | 3.2 | 8.0 | 0.00 | 0.00 | 0.00 | 54 | 1010.5 |
| 20260509155523 | 27 | 312 | 4.8 | 17.7 | 0.00 | 0.00 | 0.00 | 56 | 1010.3 |
| 20260509155042 | 27 | 311 | 3.2 | 17.7 | 0.00 | 0.00 | 0.00 | 56 | 1010.3 |
| 20260509154526 | 27 | 313 | 0.0 | 19.3 | 0.00 | 0.00 | 0.00 | 57 | 1010.3 |
| 20260509154032 | 27 | 293 | 6.4 | 19.3 | 0.00 | 0.00 | 0.00 | 55 | 1010.3 |
| 20260509153523 | 27 | 331 | 1.6 | 17.7 | 0.00 | 0.00 | 0.00 | 57 | 1010.3 |
| 20260509153027 | 26 | 288 | 6.4 | 17.7 | 0.00 | 0.00 | 0.00 | 58 | 1010.4 |
| 20260509152537 | 26 | 299 | 8.0 | 22.5 | 0.00 | 0.00 | 0.00 | 58 | 1010.4 |
| 20260509152042 | 26 | 297 | 14.5 | 22.5 | 0.00 | 0.00 | 0.00 | 58 | 1010.4 |
| 20260509151526 | 26 | 316 | 4.8 | 17.7 | 0.00 | 0.00 | 0.00 | 58 | 1010.5 |
| 20260509151057 | 26 | 308 | 4.8 | 20.9 | 0.00 | 0.00 | 0.00 | 59 | 1010.5 |
| 20260509150523 | 26 | 299 | 6.4 | 20.9 | 0.00 | 0.00 | 0.00 | 59 | 1010.5 |
| 20260509150032 | 26 | 310 | 6.4 | 20.9 | 0.00 | 0.00 | 0.00 | 58 | 1010.5 |
| 20260509145521 | 25 | 294 | 6.4 | 19.3 | 0.00 | 0.00 | 0.00 | 58 | 1010.6 |
| 20260509145027 | 25 | 310 | 6.4 | 19.3 | 0.00 | 0.00 | 0.00 | 59 | 1010.6 |
| 20260509144552 | 25 | 324 | 6.4 | 19.3 | 0.00 | 0.00 | 0.00 | 61 | 1010.5 |
| 20260509144032 | 25 | 289 | 3.2 | 14.5 | 0.00 | 0.00 | 0.00 | 64 | 1010.4 |
| 20260509143540 | 25 | 297 | 4.8 | 19.3 | 0.00 | 0.00 | 0.00 | 65 | 1010.5 |
| 20260509143027 | 24 | 301 | 8.0 | 19.3 | 0.00 | 0.00 | 0.00 | 67 | 1010.5 |
| 20260509142531 | 24 | 301 | 4.8 | 16.1 | 0.00 | 0.00 | 0.00 | 68 | 1010.5 |
| 20260509142037 | 24 | 343 | 4.8 | 14.5 | 0.00 | 0.00 | 0.00 | 68 | 1010.5 |
| 20260509141544 | 24 | 318 | 1.6 | 9.7 | 0.00 | 0.00 | 0.00 | 73 | 1010.5 |
| 20260509141023 | 23 | 312 | 3.2 | 8.0 | 0.00 | 0.00 | 0.00 | 74 | 1010.5 |
| 20260509140531 | 23 | 309 | 1.6 | 6.4 | 0.00 | 0.00 | 0.00 | 75 | 1010.5 |
| 20260509140020 | 23 | 349 | 0.0 | 0.0 | 0.00 | 0.00 | 0.00 | 77 | 1010.6 |
| 20260509135529 | 23 | 339 | 0.0 | 3.2 | 0.00 | 0.00 | 0.00 | 78 | 1010.6 |
| 20260509135031 | 22 | 343 | 0.0 | 11.3 | 0.00 | 0.00 | 0.00 | 78 | 1010.6 |
| 20260509134519 | 22 | 306 | 1.6 | 11.3 | 0.00 | 0.03 | 0.00 | 80 | 1010.6 |
| 20260509134045 | 22 | 315 | 0.0 | 6.4 | 0.00 | 0.03 | 0.00 | 80 | 1010.5 |
| 20260509133542 | 22 | 306 | 1.6 | 9.7 | 0.00 | 0.03 | 0.00 | 81 | 1010.5 |
| 20260509133042 | 22 | 304 | 1.6 | 9.7 | 0.00 | 0.03 | 0.00 | 82 | 1010.4 |
| 20260509132551 | 21 | 316 | 3.2 | 9.7 | 0.00 | 0.03 | 0.00 | 83 | 1010.4 |
| 20260509132037 | 21 | 297 | 0.0 | 8.0 | 0.00 | 0.03 | 0.00 | 84 | 1010.4 |
| 20260509131545 | 21 | 326 | 1.6 | 6.4 | 0.00 | 0.03 | 0.00 | 85 | 1010.4 |
| 20260509131031 | 21 | 302 | 0.0 | 6.4 | 0.00 | 0.03 | 0.00 | 85 | 1010.4 |
| 20260509130531 | 21 | 302 | 0.0 | 9.7 | 0.00 | 0.03 | 0.00 | 86 | 1010.4 |
| 20260509130038 | 20 | 288 | 1.6 | 9.7 | 0.00 | 0.03 | 0.00 | 86 | 1010.4 |
| 20260509125543 | 20 | 289 | 1.6 | 8.0 | 0.00 | 0.03 | 0.00 | 86 | 1010.5 |
| 20260509125046 | 20 | 290 | 0.0 | 8.0 | 0.00 | 0.03 | 0.00 | 86 | 1010.5 |
| 20260509124548 | 20 | 290 | 1.6 | 8.0 | 0.00 | 0.20 | 0.00 | 86 | 1010.4 |
| 20260509124031 | 20 | 307 | 0.0 | 0.0 | 0.00 | 0.20 | 0.00 | 87 | 1010.5 |
| 20260509123531 | 20 | 308 | 0.0 | 0.0 | 0.00 | 0.20 | 0.00 | 87 | 1010.3 |
| 20260509123039 | 20 | 308 | 0.0 | 0.0 | 0.00 | 0.20 | 0.00 | 87 | 1010.4 |
| 20260509122530 | 20 | 308 | 0.0 | 0.0 | 0.00 | 0.20 | 0.00 | 86 | 1010.3 |
| 20260509122036 | 20 | 308 | 0.0 | 6.4 | 0.00 | 0.20 | 0.00 | 86 | 1010.3 |
| 20260509121522 | 20 | 307 | 0.0 | 6.4 | 0.00 | 0.20 | 0.00 | 86 | 1010.3 |
| 20260509121030 | 20 | 307 | 1.6 | 9.7 | 0.00 | 0.20 | 0.00 | 86 | 1010.2 |
| 20260509120537 | 20 | 306 | 0.0 | 9.7 | 0.00 | 0.20 | 0.00 | 86 | 1010.1 |
| 20260509120025 | 20 | 320 | 0.0 | 4.8 | 0.00 | 0.20 | 0.00 | 86 | 1010.1 |
| 20260509115528 | 20 | 319 | 1.6 | 4.8 | 0.00 | 0.20 | 0.00 | 86 | 1010.1 |
| 20260509115030 | 20 | 316 | 0.0 | 9.7 | 0.00 | 0.20 | 0.00 | 85 | 1010.0 |
| 20260509114541 | 20 | 301 | 1.6 | 9.7 | 0.00 | 0.20 | 0.00 | 85 | 1009.9 |
| 20260509114043 | 20 | 327 | 0.0 | 6.4 | 0.00 | 0.20 | 0.00 | 85 | 1009.8 |
| 20260509113537 | 20 | 343 | 1.6 | 8.0 | 0.00 | 0.20 | 0.00 | 85 | 1009.6 |
| 20260509113023 | 20 | 308 | 1.6 | 12.9 | 0.00 | 0.20 | 0.00 | 85 | 1009.5 |
| 20260509112532 | 20 | 292 | 3.2 | 14.5 | 0.00 | 0.20 | 0.00 | 84 | 1009.5 |
| 20260509112038 | 20 | 326 | 3.2 | 14.5 | 0.00 | 0.20 | 0.00 | 84 | 1009.5 |
| 20260509111547 | 20 | 297 | 1.6 | 12.9 | 0.00 | 0.20 | 0.00 | 84 | 1009.5 |
| 20260509111058 | 20 | 290 | 0.0 | 14.5 | 0.00 | 0.20 | 0.00 | 83 | 1009.5 |
| 20260509110546 | 20 | 296 | 8.0 | 16.1 | 0.00 | 0.20 | 0.00 | 83 | 1009.0 |
| 20260509110033 | 20 | 276 | 6.4 | 16.1 | 0.00 | 0.20 | 0.00 | 83 | 1009.3 |
| 20260509105524 | 20 | 280 | 8.0 | 19.3 | 0.00 | 0.20 | 0.00 | 82 | 1009.1 |
| 20260509105029 | 20 | 291 | 9.7 | 19.3 | 0.00 | 0.20 | 0.00 | 82 | 1009.0 |
| 20260509104532 | 20 | 286 | 8.0 | 16.1 | 0.00 | 0.79 | 0.00 | 82 | 1009.0 |
| 20260509104039 | 20 | 277 | 1.6 | 9.7 | 0.00 | 0.79 | 0.00 | 82 | 1008.9 |
| 20260509103528 | 20 | 258 | 0.0 | 9.7 | 0.00 | 0.79 | 0.00 | 81 | 1009.0 |
| 20260509103021 | 20 | 257 | 6.4 | 9.7 | 0.00 | 0.79 | 0.00 | 81 | 1008.9 |
| 20260509102531 | 20 | 251 | 1.6 | 9.7 | 0.00 | 0.79 | 0.00 | 80 | 1008.7 |
| 20260509102023 | 20 | 253 | 0.0 | 8.0 | 0.00 | 0.79 | 0.00 | 79 | 1008.7 |
| 20260509101550 | 20 | 264 | 0.0 | 4.8 | 0.00 | 0.79 | 0.00 | 79 | 1008.7 |
| 20260509101041 | 20 | 291 | 0.0 | 4.8 | 0.00 | 0.79 | 0.00 | 78 | 1008.6 |
| 20260509100529 | 20 | 291 | 0.0 | 0.0 | 0.00 | 0.79 | 0.00 | 77 | 1008.6 |
| 20260509100032 | 21 | 291 | 0.0 | 0.0 | 0.00 | 0.79 | 0.00 | 77 | 1008.7 |
| 20260509095541 | 21 | 291 | 0.0 | 0.0 | 0.00 | 0.79 | 0.00 | 76 | 1008.5 |
| 20260509095027 | 21 | 291 | 0.0 | 0.0 | 0.00 | 0.79 | 0.00 | 76 | 1008.4 |
| 20260509094529 | 21 | 291 | 0.0 | 4.8 | 0.00 | 0.89 | 0.00 | 75 | 1008.3 |
| 20260509094048 | 21 | 291 | 0.0 | 4.8 | 0.00 | 0.89 | 0.00 | 75 | 1008.2 |
| 20260509093538 | 21 | 291 | 0.0 | 1.6 | 0.00 | 0.89 | 0.00 | 74 | 1008.1 |
| 20260509093043 | 21 | 291 | 0.0 | 6.4 | 0.00 | 0.89 | 0.00 | 73 | 1008.0 |
| 20260509092525 | 22 | 291 | 1.6 | 6.4 | 0.00 | 0.89 | 0.00 | 72 | 1008.0 |
| 20260509092029 | 22 | 291 | 3.2 | 6.4 | 0.00 | 0.89 | 0.00 | 71 | 1007.9 |
| 20260509091540 | 22 | 327 | 0.0 | 4.8 | 0.00 | 0.89 | 0.00 | 70 | 1007.8 |
| 20260509091029 | 22 | 328 | 1.6 | 4.8 | 0.00 | 0.89 | 0.00 | 69 | 1007.8 |
| 20260509090557 | 22 | 264 | 0.0 | 4.8 | 0.00 | 0.89 | 0.00 | 68 | 1007.9 |
| 20260509090025 | 22 | 220 | 0.0 | 1.6 | 0.00 | 0.89 | 0.00 | 69 | 1007.8 |
| 20260509085531 | 22 | 247 | 0.0 | 20.9 | 0.00 | 0.89 | 0.00 | 71 | 1007.7 |
| 20260509085041 | 22 | 344 | 6.4 | 46.7 | 0.00 | 0.89 | 0.00 | 72 | 1008.1 |
| 20260509084526 | 22 | 251 | 20.9 | 46.7 | 0.00 | 0.91 | 0.00 | 72 | 1008.3 |
| 20260509084033 | 22 | 299 | 8.0 | 29.0 | 0.00 | 0.91 | 0.00 | 76 | 1008.0 |
| 20260509083525 | 22 | 229 | 12.9 | 29.0 | 0.00 | 0.91 | 0.00 | 75 | 1005.8 |
| 20260509083030 | 22 | 202 | 12.9 | 24.1 | 0.00 | 0.91 | 0.00 | 75 | 1005.7 |
| 20260509082532 | 21 | 191 | 11.3 | 20.9 | 0.00 | 0.91 | 0.00 | 77 | 1005.2 |
| 20260509082021 | 21 | 168 | 16.1 | 20.9 | 0.00 | 0.91 | 0.00 | 77 | 1005.4 |
| 20260509081559 | 21 | 237 | 14.5 | 19.3 | 0.00 | 0.91 | 0.00 | 77 | 1006.3 |
| 20260509081048 | 21 | 138 | 8.0 | 19.3 | 0.00 | 0.91 | 0.00 | 79 | 1005.4 |
| 20260509080536 | 21 | 206 | 9.7 | 22.5 | 0.00 | 0.91 | 0.00 | 81 | 1006.0 |
| 20260509080023 | 21 | 206 | 8.0 | 22.5 | 0.00 | 0.91 | 0.00 | 83 | 1006.5 |
| 20260509075526 | 21 | 200 | 14.5 | 22.5 | 0.00 | 0.91 | 0.00 | 84 | 1007.1 |
| 20260509075026 | 21 | 207 | 6.4 | 17.7 | 0.00 | 0.91 | 0.00 | 85 | 1007.6 |
| 20260509074531 | 21 | 217 | 6.4 | 17.7 | 0.00 | 1.19 | 0.00 | 85 | 1008.0 |
| 20260509074058 | 21 | 225 | 1.6 | 20.9 | 0.00 | 1.19 | 0.00 | 85 | 1008.4 |
| 20260509073525 | 21 | 227 | 11.3 | 24.1 | 0.00 | 1.19 | 0.00 | 86 | 1008.7 |
| 20260509073029 | 21 | 214 | 17.7 | 24.1 | 0.00 | 1.19 | 0.00 | 86 | 1008.9 |
| 20260509072539 | 21 | 237 | 8.0 | 20.9 | 0.00 | 1.19 | 0.00 | 86 | 1009.2 |
| 20260509072037 | 21 | 226 | 4.8 | 19.3 | 0.00 | 1.19 | 0.00 | 86 | 1009.3 |
| 20260509071538 | 20 | 245 | 1.6 | 16.1 | 0.00 | 1.19 | 0.00 | 86 | 1009.4 |
| 20260509071023 | 20 | 274 | 1.6 | 6.4 | 0.00 | 1.19 | 0.00 | 86 | 1009.5 |
| 20260509070558 | 20 | 213 | 0.0 | 16.1 | 0.00 | 1.19 | 0.00 | 86 | 1009.6 |
| 20260509070023 | 20 | 232 | 0.0 | 16.1 | 0.00 | 1.19 | 0.00 | 86 | 1010.0 |
| 20260509065547 | 20 | 219 | 3.2 | 11.3 | 0.00 | 1.19 | 0.00 | 86 | 1010.3 |
| 20260509065033 | 20 | 239 | 0.0 | 14.5 | 0.00 | 1.19 | 0.00 | 87 | 1010.2 |
| 20260509064536 | 20 | 224 | 0.0 | 14.5 | 0.00 | 1.19 | 0.00 | 86 | 1010.1 |
| 20260509064041 | 20 | 218 | 0.0 | 0.0 | 0.00 | 1.19 | 0.00 | 86 | 1010.4 |
| 20260509063548 | 20 | 249 | 0.0 | 3.2 | 0.00 | 1.19 | 0.00 | 86 | 1010.7 |
| 20260509063035 | 20 | 248 | 0.0 | 3.2 | 0.00 | 1.19 | 0.00 | 86 | 1010.7 |
| 20260509062545 | 20 | 230 | 0.0 | 0.0 | 0.00 | 1.19 | 0.00 | 86 | 1010.6 |
| 20260509062033 | 20 | 225 | 0.0 | 0.0 | 0.00 | 1.19 | 0.00 | 86 | 1010.7 |
| 20260509061533 | 20 | 254 | 0.0 | 0.0 | 0.00 | 1.19 | 0.00 | 85 | 1010.8 |
| 20260509061040 | 20 | 254 | 0.0 | 0.0 | 0.00 | 1.19 | 0.00 | 85 | 1010.8 |
| 20260509060546 | 20 | 260 | 0.0 | 0.0 | 0.00 | 1.19 | 0.00 | 85 | 1010.7 |
| 20260509060057 | 20 | 274 | 0.0 | 0.0 | 0.00 | 1.19 | 0.00 | 84 | 1010.6 |
| 20260509055538 | 20 | 275 | 0.0 | 4.8 | 0.00 | 1.19 | 1.19 | 84 | 1010.6 |
| 20260509055027 | 21 | 276 | 0.0 | 4.8 | 0.00 | 1.19 | 1.19 | 84 | 1010.6 |
| 20260509054559 | 21 | 283 | 0.0 | 4.8 | 0.00 | 1.19 | 1.19 | 84 | 1010.4 |
| 20260509054042 | 21 | 343 | 0.0 | 3.2 | 0.00 | 1.19 | 1.19 | 84 | 1010.3 |
| 20260509053555 | 21 | 344 | 0.0 | 0.0 | 0.00 | 1.19 | 1.19 | 83 | 1010.7 |
| 20260509053025 | 21 | 344 | 0.0 | 0.0 | 0.00 | 1.19 | 1.19 | 83 | 1010.7 |
| 20260509052559 | 21 | 343 | 0.0 | 0.0 | 0.00 | 1.19 | 1.19 | 83 | 1010.6 |
| 20260509052045 | 21 | 344 | 0.0 | 0.0 | 0.00 | 1.19 | 1.19 | 82 | 1011.0 |
| 20260509051529 | 21 | 344 | 0.0 | 4.8 | 0.00 | 1.19 | 1.19 | 82 | 1011.0 |
| 20260509051036 | 21 | 346 | 0.0 | 4.8 | 0.00 | 1.19 | 1.19 | 81 | 1011.3 |
| 20260509050524 | 21 | 344 | 0.0 | 4.8 | 0.00 | 1.19 | 1.19 | 81 | 1011.2 |
| 20260509050058 | 22 | 353 | 3.2 | 6.4 | 0.00 | 1.19 | 1.19 | 80 | 1011.3 |
| 20260509045525 | 22 | 348 | 1.6 | 6.4 | 0.00 | 1.19 | 1.19 | 80 | 1011.4 |
| 20260509045029 | 22 | 135 | 0.0 | 0.0 | 0.00 | 1.19 | 1.19 | 80 | 1010.5 |
| 20260509044536 | 22 | 135 | 0.0 | 0.0 | 0.00 | 1.19 | 1.19 | 79 | 1010.3 |
| 20260509044029 | 22 | 135 | 0.0 | 6.4 | 0.00 | 1.19 | 1.19 | 79 | 1010.3 |
| 20260509043529 | 22 | 171 | 0.0 | 6.4 | 0.00 | 1.19 | 1.19 | 79 | 1010.1 |
| 20260509043038 | 22 | 196 | 0.0 | 4.8 | 0.00 | 1.19 | 1.19 | 79 | 1009.9 |
| 20260509042544 | 22 | 176 | 0.0 | 9.7 | 0.00 | 1.19 | 1.19 | 80 | 1009.7 |
| 20260509042028 | 22 | 175 | 1.6 | 9.7 | 0.00 | 1.19 | 1.19 | 80 | 1009.6 |
| 20260509041534 | 22 | 179 | 0.0 | 6.4 | 0.00 | 1.19 | 1.19 | 80 | 1009.5 |
| 20260509041040 | 22 | 134 | 3.2 | 6.4 | 0.00 | 1.19 | 1.19 | 80 | 1009.5 |
| 20260509040527 | 22 | 133 | 0.0 | 1.6 | 0.00 | 1.19 | 1.19 | 80 | 1009.6 |
| 20260509040058 | 22 | 148 | 0.0 | 0.0 | 0.00 | 1.19 | 1.19 | 80 | 1009.5 |
| 20260509035525 | 22 | 144 | 0.0 | 0.0 | 0.00 | 1.19 | 1.19 | 80 | 1009.7 |
| 20260509035032 | 22 | 127 | 0.0 | 0.0 | 0.00 | 1.19 | 1.19 | 80 | 1009.7 |
| 20260509034523 | 22 | 120 | 0.0 | 0.0 | 0.00 | 1.19 | 1.19 | 80 | 1009.6 |
| 20260509034032 | 22 | 116 | 0.0 | 0.0 | 0.00 | 1.19 | 1.19 | 80 | 1009.7 |
| 20260509033533 | 22 | 97 | 0.0 | 0.0 | 0.00 | 1.19 | 1.19 | 80 | 1009.6 |
| 20260509033053 | 22 | 78 | 0.0 | 11.3 | 0.00 | 1.19 | 1.19 | 80 | 1009.8 |
| 20260509032537 | 22 | 66 | 4.8 | 11.3 | 0.00 | 1.19 | 1.19 | 80 | 1009.9 |
| 20260509032044 | 22 | 61 | 3.2 | 11.3 | 0.00 | 1.19 | 1.19 | 79 | 1010.0 |
| 20260509031545 | 22 | 52 | 1.6 | 11.3 | 0.00 | 1.19 | 1.19 | 79 | 1009.9 |
| 20260509031039 | 22 | 54 | 0.0 | 9.7 | 0.00 | 1.19 | 1.19 | 79 | 1009.8 |
| 20260509030543 | 22 | 68 | 0.0 | 9.7 | 0.00 | 1.19 | 1.19 | 79 | 1009.4 |
| 20260509030025 | 22 | 96 | 0.0 | 9.7 | 0.00 | 1.19 | 1.19 | 78 | 1009.1 |
| 20260509025532 | 22 | 118 | 0.0 | 6.4 | 0.00 | 1.19 | 1.19 | 78 | 1008.7 |
| 20260509025035 | 22 | 115 | 0.0 | 6.4 | 0.00 | 1.19 | 1.19 | 78 | 1008.4 |
| 20260509024523 | 22 | 118 | 0.0 | 6.4 | 0.00 | 1.19 | 1.19 | 78 | 1008.5 |
| 20260509024101 | 22 | 122 | 0.0 | 9.7 | 0.00 | 1.19 | 1.19 | 78 | 1008.6 |
| 20260509023531 | 22 | 131 | 4.8 | 14.5 | 0.00 | 1.19 | 1.19 | 77 | 1008.4 |
| 20260509023038 | 22 | 148 | 3.2 | 14.5 | 0.00 | 1.19 | 1.19 | 77 | 1008.3 |
| 20260509022528 | 22 | 121 | 1.6 | 6.4 | 0.00 | 1.19 | 1.19 | 77 | 1008.1 |
| 20260509022032 | 22 | 169 | 0.0 | 8.0 | 0.00 | 1.19 | 1.19 | 77 | 1008.1 |
| 20260509021544 | 22 | 193 | 0.0 | 8.0 | 0.00 | 1.19 | 1.19 | 77 | 1008.1 |
| 20260509021053 | 22 | 189 | 0.0 | 6.4 | 0.00 | 1.19 | 1.19 | 77 | 1008.0 |
| 20260509020540 | 22 | 189 | 0.0 | 9.7 | 0.00 | 1.19 | 1.19 | 76 | 1007.9 |
| 20260509020029 | 22 | 186 | 0.0 | 16.1 | 0.00 | 1.19 | 1.19 | 76 | 1007.7 |
| 20260509015533 | 22 | 177 | 0.0 | 16.1 | 0.00 | 1.19 | 1.19 | 76 | 1007.6 |
| 20260509015024 | 22 | 212 | 1.6 | 16.1 | 0.00 | 1.19 | 1.19 | 76 | 1007.6 |
| 20260509014528 | 22 | 187 | 3.2 | 16.1 | 0.00 | 1.19 | 1.19 | 76 | 1007.5 |
| 20260509014034 | 22 | 148 | 0.0 | 11.3 | 0.00 | 1.19 | 1.19 | 75 | 1007.6 |
| 20260509013547 | 22 | 211 | 3.2 | 11.3 | 0.00 | 1.19 | 1.19 | 75 | 1007.8 |
| 20260509013054 | 22 | 181 | 1.6 | 6.4 | 0.00 | 1.19 | 1.19 | 75 | 1008.0 |
| 20260509012523 | 22 | 191 | 1.6 | 9.7 | 0.00 | 1.19 | 1.19 | 75 | 1008.1 |
| 20260509012032 | 22 | 191 | 0.0 | 12.9 | 0.00 | 1.19 | 1.19 | 75 | 1008.2 |
| 20260509011539 | 22 | 210 | 0.0 | 12.9 | 0.00 | 1.19 | 1.19 | 75 | 1008.3 |
| 20260509011037 | 22 | 194 | 0.0 | 0.0 | 0.00 | 1.19 | 1.19 | 75 | 1008.2 |
| 20260509010541 | 22 | 195 | 0.0 | 4.8 | 0.00 | 1.19 | 1.19 | 75 | 1008.1 |
| 20260509010030 | 22 | 213 | 0.0 | 4.8 | 0.00 | 1.19 | 1.19 | 75 | 1008.1 |
| 20260509005542 | 23 | 193 | 0.0 | 11.3 | 0.00 | 1.19 | 1.19 | 74 | 1008.0 |
| 20260509005026 | 23 | 204 | 0.0 | 16.1 | 0.00 | 1.19 | 1.19 | 74 | 1007.9 |
| 20260509004537 | 23 | 185 | 3.2 | 19.3 | 0.00 | 1.19 | 1.19 | 74 | 1007.8 |
| 20260509004024 | 23 | 197 | 3.2 | 19.3 | 0.00 | 1.19 | 1.19 | 74 | 1007.8 |
| 20260509003527 | 23 | 210 | 0.0 | 16.1 | 0.00 | 1.19 | 1.19 | 74 | 1007.7 |
| 20260509003027 | 23 | 207 | 0.0 | 9.7 | 0.00 | 1.19 | 1.19 | 74 | 1007.7 |
| 20260509002537 | 23 | 191 | 0.0 | 16.1 | 0.00 | 1.19 | 1.19 | 73 | 1007.7 |
| 20260509002025 | 23 | 204 | 0.0 | 16.1 | 0.00 | 1.19 | 1.19 | 73 | 1007.6 |
| 20260509001529 | 23 | 188 | 6.4 | 16.1 | 0.00 | 1.19 | 1.19 | 72 | 1007.6 |
| 20260509001036 | 23 | 186 | 6.4 | 16.1 | 0.00 | 1.19 | 1.19 | 72 | 1007.5 |
| 20260509000546 | 23 | 179 | 0.0 | 16.1 | 0.00 | 1.19 | 1.19 | 72 | 1007.5 |
| 20260509000048 | 23 | 197 | 3.2 | 17.7 | 0.00 | 1.19 | 1.19 | 71 | 1007.6 |